Location: Praha
(50.0830°N, 14.4670°E)
Time: 10:20:32
(UTC+01:00)

ISS - Pass Details

Date: 20 January 2023
Orbit: 412 x 423 km, 51.6° (Epoch: 06 February)

Event Time Altitude Azimuth Distance (km) Brightness Sun altitude
Rises 18:21:00 0° 235° (SW) 2,374 1.3 -16.5°
Reaches altitude 10° 18:23:08 10° 230° (SW) 1,512 0.0 -16.8°
Maximum altitude 18:26:26 50° 154° (SSE) 548 -3.4 -17.3°
Enters shadow 18:27:01 44° 118° (ESE) 600 -3.4 -17.4°
